DLH320 EDDW-EHAM

Flight info

Callsign DLH320
Flight time N/A
Altitude 24000
Route OKWEL1M OKWEL N125 BLUFA
Aircraft A320/M-SDE3FGHIRWY/LB1

Departure

Time N/A
Airport Bremen Airport (EDDW)

Arrival

Time 2026-04-29 11:45
Airport Amsterdam Airport Schiphol (EHAM)
Time Latitude Longitude Altitude Speed Heading
2026-04-29 11:21 53.02095 7.33757 24313 ft 445 kts 271°
2026-04-29 11:21 53.01965 7.28621 24413 ft 444 kts 271°
2026-04-29 11:21 53.01790 7.23509 24449 ft 444 kts 266°
2026-04-29 11:22 53.01212 7.18467 24448 ft 447 kts 256°
2026-04-29 11:22 53.00238 7.13558 24451 ft 448 kts 253°
2026-04-29 11:22 52.99235 7.08670 24435 ft 448 kts 253°
2026-04-29 11:22 52.98236 7.03776 24446 ft 448 kts 253°
2026-04-29 11:23 52.97239 6.98874 24444 ft 448 kts 253°
2026-04-29 11:23 52.96240 6.93979 24440 ft 448 kts 253°
2026-04-29 11:23 52.95249 6.89062 24441 ft 449 kts 253°
2026-04-29 11:23 52.94262 6.84219 24440 ft 448 kts 253°
2026-04-29 11:24 52.93256 6.79335 24439 ft 448 kts 253°
2026-04-29 11:24 52.92187 6.74485 24432 ft 447 kts 246°
2026-04-29 11:24 52.90771 6.69955 24144 ft 439 kts 242°
2026-04-29 11:24 52.89289 6.65524 23342 ft 441 kts 241°
2026-04-29 11:25 52.87750 6.61075 22401 ft 447 kts 240°
2026-04-29 11:25 52.86191 6.56642 21767 ft 444 kts 240°
2026-04-29 11:25 52.84645 6.52252 21241 ft 439 kts 240°
2026-04-29 11:25 52.83118 6.47899 20729 ft 435 kts 240°
2026-04-29 11:26 52.80142 6.39345 19806 ft 424 kts 241°
2026-04-29 11:26 52.78685 6.35134 19330 ft 419 kts 241°
2026-04-29 11:26 52.77238 6.30950 18612 ft 422 kts 241°
2026-04-29 11:27 52.75779 6.26738 17756 ft 425 kts 241°
2026-04-29 11:27 52.74311 6.22511 17041 ft 424 kts 241°
2026-04-29 11:27 52.72846 6.18303 16422 ft 421 kts 241°
2026-04-29 11:27 52.71377 6.14090 15524 ft 426 kts 240°
2026-04-29 11:28 52.69892 6.09850 14808 ft 426 kts 240°
2026-04-29 11:28 52.68413 6.05640 14165 ft 423 kts 240°
2026-04-29 11:28 52.66944 6.01464 13478 ft 419 kts 240°
2026-04-29 11:28 52.65506 5.97391 12814 ft 415 kts 239°
2026-04-29 11:29 52.64059 5.93305 12161 ft 410 kts 239°
2026-04-29 11:29 52.62629 5.89265 11511 ft 406 kts 239°
2026-04-29 11:29 52.61215 5.85275 10870 ft 401 kts 239°
2026-04-29 11:29 52.59823 5.81342 10436 ft 391 kts 239°
2026-04-29 11:30 52.58486 5.77566 10318 ft 373 kts 239°
2026-04-29 11:30 52.57208 5.73962 10176 ft 356 kts 239°
2026-04-29 11:30 52.55986 5.70528 10144 ft 338 kts 238°
2026-04-29 11:30 52.54840 5.67312 10335 ft 318 kts 239°
2026-04-29 11:31 52.53741 5.64211 10253 ft 311 kts 239°
2026-04-29 11:31 52.52654 5.61159 9879 ft 309 kts 238°
2026-04-29 11:31 52.51564 5.58134 9499 ft 307 kts 238°
2026-04-29 11:31 52.50472 5.55136 9231 ft 305 kts 237°
2026-04-29 11:32 52.49380 5.52156 8943 ft 305 kts 237°
2026-04-29 11:32 52.48284 5.49177 8686 ft 305 kts 237°
2026-04-29 11:32 52.47190 5.46202 8431 ft 303 kts 237°
2026-04-29 11:32 52.46116 5.43288 8178 ft 302 kts 237°
2026-04-29 11:33 52.45015 5.40310 7915 ft 301 kts 237°
2026-04-29 11:33 52.43946 5.37417 7676 ft 300 kts 237°
2026-04-29 11:33 52.42864 5.34492 7433 ft 300 kts 237°
2026-04-29 11:33 52.41782 5.31570 7184 ft 299 kts 237°
2026-04-29 11:34 52.40704 5.28657 6987 ft 298 kts 237°
2026-04-29 11:34 52.39633 5.25761 6802 ft 297 kts 236°
2026-04-29 11:34 52.38563 5.22872 6598 ft 296 kts 236°
2026-04-29 11:34 52.37493 5.19994 6394 ft 296 kts 236°
2026-04-29 11:35 52.36421 5.17124 6183 ft 295 kts 236°
2026-04-29 11:35 52.35391 5.14222 5974 ft 295 kts 238°
2026-04-29 11:35 52.34382 5.11303 5795 ft 295 kts 238°
2026-04-29 11:35 52.33377 5.08381 5619 ft 295 kts 238°
2026-04-29 11:36 52.32375 5.05465 5439 ft 294 kts 238°
2026-04-29 11:36 52.31378 5.02549 5269 ft 294 kts 238°
2026-04-29 11:36 52.30386 4.99638 5066 ft 293 kts 238°
2026-04-29 11:36 52.29399 4.96735 4785 ft 291 kts 238°
2026-04-29 11:37 52.28422 4.93855 4386 ft 289 kts 238°
2026-04-29 11:37 52.27457 4.90987 3953 ft 288 kts 237°
2026-04-29 11:37 52.26513 4.88122 3673 ft 286 kts 238°
2026-04-29 11:37 52.25575 4.85255 3419 ft 286 kts 238°
2026-04-29 11:38 52.24636 4.82413 3155 ft 283 kts 238°
2026-04-29 11:38 52.23695 4.79602 2898 ft 281 kts 238°
2026-04-29 11:38 52.22747 4.76827 2618 ft 278 kts 238°
2026-04-29 11:38 52.21787 4.74103 2275 ft 276 kts 238°
2026-04-29 11:39 52.20840 4.71456 2134 ft 264 kts 238°
2026-04-29 11:39 52.19932 4.68927 2010 ft 252 kts 238°
2026-04-29 11:39 52.19064 4.66521 1979 ft 240 kts 238°
2026-04-29 11:39 52.18243 4.64226 1982 ft 232 kts 237°
2026-04-29 11:40 52.17477 4.61963 1972 ft 222 kts 247°
2026-04-29 11:40 52.17317 4.59612 1985 ft 207 kts 287°
2026-04-29 11:40 52.17991 4.57676 1997 ft 189 kts 323°
2026-04-29 11:40 52.19004 4.56391 1981 ft 182 kts 332°
2026-04-29 11:41 52.20097 4.55518 1961 ft 169 kts
2026-04-29 11:41 52.21224 4.55736 1982 ft 161 kts 25°
2026-04-29 11:41 52.22172 4.56609 1989 ft 155 kts 46°
2026-04-29 11:41 52.22825 4.57960 1993 ft 151 kts 60°
2026-04-29 11:42 52.23391 4.59421 1952 ft 153 kts 60°
2026-04-29 11:42 52.23956 4.60880 1821 ft 152 kts 60°
2026-04-29 11:42 52.24516 4.62327 1641 ft 145 kts 60°
2026-04-29 11:42 52.25021 4.63631 1469 ft 130 kts 61°
2026-04-29 11:43 52.25489 4.64844 1288 ft 124 kts 60°
2026-04-29 11:43 52.25945 4.66026 1123 ft 122 kts 59°
2026-04-29 11:43 52.26396 4.67195 962 ft 121 kts 59°
2026-04-29 11:43 52.26845 4.68359 796 ft 121 kts 60°
2026-04-29 11:44 52.27297 4.69533 664 ft 121 kts 60°
2026-04-29 11:44 52.27746 4.70686 484 ft 121 kts 59°
2026-04-29 11:44 52.28197 4.71846 298 ft 122 kts 59°
2026-04-29 11:44 52.28641 4.73018 149 ft 121 kts 59°
2026-04-29 11:45 52.29084 4.74179 26 ft 119 kts 59°
2026-04-29 11:45 52.29474 4.75191 -3 ft 85 kts 57°
2026-04-29 11:45 52.29700 4.75781 -3 ft 45 kts 58°
2026-04-29 11:45 52.29846 4.76157 -4 ft 34 kts 57°
2026-04-29 11:46 52.29965 4.76451 -3 ft 27 kts 51°
2026-04-29 11:46 52.30102 4.76603 -1 ft 22 kts 27°
2026-04-29 11:46 52.30200 4.76687 -1 ft 0 kts 27°
2026-04-29 11:46 52.30201 4.76688 -1 ft 0 kts 27°
2026-04-29 11:47 52.30202 4.76689 -1 ft 1 kts 27°
2026-04-29 11:47 52.30216 4.76700 -1 ft 3 kts 27°
2026-04-29 11:47 52.30244 4.76724 -1 ft 6 kts 25°
2026-04-29 11:47 52.30293 4.76742 -1 ft 9 kts 360°
2026-04-29 11:48 52.30341 4.76700 -1 ft 8 kts 304°
2026-04-29 11:48 52.30336 4.76626 -1 ft 7 kts 244°
2026-04-29 11:48 52.30336 4.76555 -1 ft 6 kts 294°
2026-04-29 11:48 52.30365 4.76508 -1 ft 6 kts 323°
2026-04-29 11:49 52.30397 4.76475 -1 ft 5 kts 328°
2026-04-29 11:49 52.30425 4.76445 -1 ft 4 kts 322°
2026-04-29 11:49 52.30428 4.76406 -1 ft 3 kts 253°
2026-04-29 11:49 52.30413 4.76369 -1 ft 3 kts 237°
2026-04-29 11:50 52.30407 4.76352 -1 ft 0 kts 238°